RH
99 88 87 82 80 87 95 98 97 99 99 97 89 89 88 74 64 56 54 52 49 45 42 40 42 45 42 40 41 42 41 36
97 97 97 97 98 100 100 97 92 98 96 78 97 96 95 88 88 72 58 53 49 47 47 44 41 44 42 39 38 36 35 34
96 96 96 96 97 97 100 99 97 97 99 92 91 97 99 100 93 86 75 64 60 57 57 59 52 52 54 56 52 47 44 42
91 91 92 91 87 86 89 87 81 82 82 75 77 82 77 96 95 79 70 71 83 75 72 70 68 67 68 63 57 52 51 49
76 92 92 94 92 82 90 82 74 78 70 67 66 82 96 98 96 98 83 80 87 85 70 76 77 72 72 69 61 56 50 47
84 75 70 79 94 96 96 91 97 92 95 95 98 94 96 96 99 96 75 83 86 91 79 86 87 87 86 79 64 53 50 50
91 67 62 62 59 70 85 94 97 97 96 96 97 97 97 96 97 96 97 96 95 91 91 88 86 83 73 65 60 56 53 45
84 72 60 50 50 54 54 70 89 98 100 98 98 97 97 96 96 96 96 96 93 94 94 88 89 85 72 61 54 44 34 25
64 51 47 47 45 45 50 51 58 94 97 98 98 97 96 97 96 96 97 97 97 96 94 89 74 68 61 48 32 20 13 10
59 48 43 38 38 38 46 63 62 92 100 97 96 87 86 96 96 96 98 95 92 80 74 72 68 57 38 21 12 7 6 6
56 53 41 40 50 53 59 78 93 94 98 97 100 98 97 97 98 92 93 84 77 77 74 62 40 19 9 6 7 7 8 8
68 54 49 55 64 70 73 81 98 96 92 89 93 97 98 98 97 84 78 83 81 66 40 16 8 7 8 9 10 10 10 10
65 54 55 68 84 90 95 97 99 99 100 100 100 97 87 90 86 86 88 73 37 13 8 8 10 11 12 12 12 12 12 10
64 62 64 80 94 97 97 97 95 91 90 90 90 93 92 95 93 74 32 13 9 10 12 14 15 16 16 16 15 14 13 12
72 80 88 96 97 97 97 98 95 97 98 98 99 99 82 43 17 10 11 13 15 16 17 18 18 19 19 19 17 16 15 13
85 94 95 97 99 99 100 100 100 98 92 67 35 15 12 13 15 15 15 16 16 16 18 19 19 19 18 17 16 16 15 14
99 100 98 98 99 98 97 92 68 28 12 11 14 16 16 17 17 16 15 15 16 15 15 15 14 14 13 12 13 14 15 16
97 95 93 98 95 69 26 12 13 17 18 19 20 20 19 18 18 17 16 15 14 13 12 11 10 9 9 9 8 10 15 18
87 90 96 81 28 13 17 19 21 23 24 24 21 19 18 17 15 14 13 11 10 9 8 7 6 6 5 5 5 9 16 20
Wind_Speed
29 27 25 27 28 30 31 32 33 33 34 38 42 44 43 43 44 44 45 45 46 47 47 47 46 47 48 49 49 49 49 50
31 38 31 32 34 37 39 38 41 44 43 44 43 44 46 48 47 48 49 50 51 50 50 51 51 51 51 52 51 51 52 53
32 33 36 37 40 43 44 47 48 48 50 50 48 50 48 51 52 52 53 51 53 51 50 51 52 52 53 53 53 54 54 54
36 38 40 41 42 44 46 48 49 51 53 54 52 52 53 56 60 57 57 54 53 54 55 56 57 58 59 59 59 59 57 56
34 38 44 44 42 44 46 49 52 55 59 61 57 55 58 60 59 55 57 57 57 56 60 61 62 63 63 62 63 63 62 60
34 36 38 43 46 48 48 52 43 50 50 63 59 59 64 61 63 53 58 61 63 60 64 67 67 64 63 63 64 64 63 64
39 40 40 44 45 45 51 57 55 53 54 47 46 55 54 52 50 55 60 62 64 61 62 63 61 61 63 64 64 63 64 65
40 41 44 47 49 49 49 50 55 53 50 53 51 51 50 51 52 54 55 57 58 60 61 62 63 62 62 62 63 64 65 65
39 42 46 48 49 48 50 53 53 56 48 48 53 53 56 57 55 54 57 60 63 62 62 62 61 62 63 64 63 63 64 64
46 43 48 48 50 50 51 49 52 54 56 56 56 55 54 55 58 61 64 64 63 63 63 64 64 65 64 64 62 62 60 58
50 47 51 50 47 48 49 46 43 48 59 62 59 55 59 61 61 64 65 65 66 67 67 66 65 64 62 60 59 58 57 57
54 49 47 46 44 45 46 43 42 45 52 55 55 57 60 62 64 68 68 69 68 68 67 64 61 59 60 59 58 56 55 54
56 53 50 46 42 41 40 42 46 49 53 58 61 62 64 66 68 70 70 68 67 65 62 61 61 61 60 59 57 55 52 53
52 51 49 46 45 45 44 45 48 51 54 58 62 65 66 67 68 68 68 67 66 67 67 65 63 62 60 58 57 54 53 52
53 49 47 47 45 46 47 49 52 55 58 61 62 65 66 66 66 67 68 69 70 70 70 68 67 64 63 60 58 56 54 53
47 46 48 49 48 47 47 49 52 55 58 61 63 65 66 68 69 71 72 72 73 73 70 68 66 65 63 62 60 58 56 54
46 49 49 46 46 47 50 53 56 58 60 62 66 69 70 72 74 77 78 76 75 74 72 70 68 67 66 64 61 59 56 55
50 51 50 49 50 51 52 53 56 60 64 67 70 72 75 76 77 78 78 79 78 76 73 71 68 66 65 62 60 59 56 55
53 53 52 53 53 54 57 60 63 66 69 71 73 74 76 78 78 78 78 77 76 76 74 72 68 64 62 61 60 58 56 55
Wind_Direction
288 288 289 285 281 280 277 275 277 278 278 275 267 271 276 274 272 272 272 274 276 278 279 278 276 276 276 276 275 275 276 277
275 281 279 278 278 279 281 284 285 284 282 270 281 270 264 271 272 272 270 270 272 274 274 273 274 277 279 280 282 284 284 284
272 270 270 270 271 273 274 272 276 278 280 275 267 273 272 273 269 271 273 275 279 280 283 285 284 284 285 286 285 284 284 283
286 278 272 268 266 266 269 271 272 277 276 273 266 264 268 271 272 274 275 280 284 284 286 290 290 289 289 290 287 285 284 284
303 294 292 282 275 274 271 272 271 273 276 278 274 266 272 274 279 272 276 280 279 281 283 286 286 285 285 285 286 285 284 284
302 297 294 288 280 273 266 265 271 274 268 262 263 266 271 272 272 272 276 280 278 278 279 281 281 281 282 283 284 285 287 288
302 302 298 291 288 286 282 278 271 278 284 287 279 266 270 270 272 273 274 278 281 283 286 286 286 286 286 287 288 290 291 290
296 295 295 295 293 288 285 283 281 279 283 281 282 275 274 278 283 286 290 292 291 288 286 286 288 289 289 290 290 289 288 287
298 296 296 292 292 292 290 284 278 273 281 282 283 281 283 287 290 291 293 292 291 290 290 291 291 292 291 290 288 286 283 281
302 298 298 296 291 289 290 285 278 274 272 273 276 282 285 287 290 291 291 291 291 292 291 291 292 290 288 285 284 284 285 286
298 303 304 301 296 293 291 289 279 276 271 274 280 284 285 286 288 291 292 293 293 293 293 292 290 289 287 288 288 289 288 287
306 310 304 304 297 292 288 289 284 274 274 279 283 288 289 290 292 292 292 292 293 292 291 291 289 288 288 287 286 286 285 285
309 307 308 303 299 294 291 292 287 282 277 282 286 289 291 291 290 291 291 290 290 289 288 288 288 288 287 286 286 285 284 281
308 306 305 303 300 296 291 287 283 285 284 283 285 288 288 287 287 287 287 288 289 288 288 288 288 287 287 286 285 283 281 279
306 304 305 302 298 293 288 287 286 286 286 286 286 285 285 285 287 288 289 289 290 290 290 290 290 289 287 286 284 282 280 278
303 303 302 302 300 296 293 291 290 289 287 286 287 289 290 290 290 290 290 291 291 291 290 289 288 286 284 283 281 280 278 276
309 307 306 302 298 295 294 295 294 293 293 292 291 292 293 294 294 295 294 294 293 292 290 289 287 285 283 281 278 276 275 274
308 308 305 302 301 300 296 295 295 296 296 296 297 298 297 297 296 295 294 294 293 292 291 289 287 285 283 279 276 273 270 268
307 307 306 306 304 303 303 302 302 301 301 301 300 299 298 297 296 295 294 293 293 292 290 288 286 283 280 277 273 270 267 264